Regional Weather Roundup
Issued by NWS Kansas City/Pleasant Hill, MO

Home | Current Version | Previous Version | Graphics & Text | Print | Product List | Glossary Off
Versions: 1 2 3 4 5 6 7 8 9 10 11 12 13 14 15 16 17 18 19 20 21 22 23 24 25 26 27 28 29 30 31 32 33 34 35 36 37 38 39 40 41 42 43 44 45 46 47 48 49 50

630
ASUS43 KEAX 140710
RWREAX

WEATHER ROUNDUP FOR EASTERN KANSAS AND NORTHWEST MISSOURI
NATIONAL WEATHER SERVICE KANSAS CITY/PLEASANT HILL MO
100 AM CST SUN FEB 14 2016

KSZ040-057-103>105-MOZ028-029-037-043-140800-
...KANSAS CITY METROPOLITAN AREA...

CITY           SKY/WX    TMP DP  RH WIND       PRES   REMARKS
K.C. INTL      CLOUDY    22   5  48 E16       30.14F WCI   8
K.C. DOWNTOWN  CLOUDY    24   4  42 E8        30.17F WCI  15
LEES SUMMIT    CLOUDY    24   5  44 SE12      30.14F WCI  13
OLATHE - IXD   CLOUDY    22   5  48 E14       30.11F WCI   9
OLATHE - OJC   CLOUDY    22   4  46 SE12G21   30.11F WCI  10
LAWRENCE       PTCLDY    23   5  46 E12       30.13F WCI  12

$$

MOZ001>008-011>017-020>025-030>033-038>040-044>046-053-054-140800-
...NORTHERN AND CENTRAL MISSOURI...

CITY           SKY/WX    TMP DP  RH WIND       PRES   REMARKS
ST. JOSEPH     CLOUDY    22   3  44 SE13      30.18F WCI  10
MOSBY            N/A     23   5  46 E10G18    30.19F WCI  12
WARRENSBURG    CLOUDY    27   5  39 E10       30.19F WCI  17
WHITEMAN AFB   CLOUDY    25   4  41 E12       30.19S WCI  14
CLINTON          N/A     30   7  37 E9        30.18F WCI  22
SEDALIA        CLOUDY    25   4  40 E13       30.22F WCI  14
WARSAW         NOT AVBL
CHILLICOTHE      N/A     22   5  48 SE9G18    30.25F WCI  12
KIRKSVILLE     CLOUDY    19   7  59 E14G23    30.26F WCI   6

$$

MOZ041-047>049-056>058-063>065-088>090-097-140800-
...EASTERN AND SOUTHERN MISSOURI...

CITY           SKY/WX    TMP DP  RH WIND       PRES   REMARKS
ST. LOUIS INTL CLOUDY    24   7  48 SE14      30.38F WCI  12
SPIRIT OF STL  CLOUDY    23   7  50 E5        30.37F WCI  17
COLUMBIA       CLOUDY    22   3  44 E12       30.25F WCI  10
JEFFERSON CITY CLOUDY    24   4  42 E16       30.28F WCI  11
ROLLA          CLOUDY    23   3  42 SE10      30.24F WCI  12
OSAGE BEACH    CLOUDY    27   1  33 SE12G18   30.22F WCI  16
SPRINGFIELD    CLOUDY    28   5  37 SE17G28   30.14F WCI  16
JOPLIN         CLOUDY    36  12  37 SE14G20   30.08F WCI  27
WEST PLAINS    CLOUDY    24   4  42 SE8       30.29S WCI  15

$$

IAZ060-094-KSZ022-034>040-054-083-096-NEZ052-066-093-140800-
...KANSAS...SOUTHEAST NEBRASKA AND IOWA...

CITY           SKY/WX    TMP DP  RH WIND       PRES   REMARKS
TOPEKA         PTCLDY    24   5  44 E9        30.15S WCI  14
MANHATTAN      CLOUDY    22   6  50 E12       30.08F WCI  10
EMPORIA        CLOUDY    20   8  60 E10       30.04F WCI   9
CHANUTE        CLOUDY    30  11  45 SE10      30.04F WCI  21
WICHITA        CLOUDY    33  14  45 SE13      29.94F WCI  24
OMAHA          CLOUDY    20   5  52 SE20      30.12F WCI   4
LINCOLN        CLOUDY    19   6  57 SE13      30.10F WCI   6
FALLS CITY     PTCLDY    20   4  50 SE8       30.12F WCI  10
LAMONI         CLOUDY    17   6  62 SE13G21   30.19F WCI   4
DES MOINES     FLURRIES  15   8  73 SE14G21   30.23F WCI   0

$$





USA.gov is the U.S. government's official web portal to all federal, state and local government web resources and services.